GW5346 Weather Reports


Display with metric or nautical units.
time (UTC)temp
F
wind
direction
speed
MPH
gust
MPH
rain 1hr
in
rain 24hr
in
rain mn
in
humidity
%
barometer
mb
20260505101545 41 330 7.0 12.0 0.00 0.00 0.00 55 1018.4
20260505100052 41 302 5.0 11.0 0.00 0.00 0.00 55 1018.3
20260505094553 41 298 9.0 12.0 0.00 0.00 0.00 54 1018.1
20260505093052 40 306 8.0 10.0 0.00 0.00 0.00 53 1017.9
20260505091556 40 268 4.0 8.0 0.00 0.00 0.00 52 1017.8
20260505090056 39 281 3.0 6.0 0.00 0.00 0.00 52 1017.8
20260505084551 39 277 2.0 6.0 0.00 0.00 0.00 51 1017.8
20260505083054 39 281 2.0 4.0 0.00 0.00 0.00 51 1017.8
20260505081556 39 282 2.0 4.0 0.00 0.00 0.00 51 1017.8
20260505080050 39 290 1.0 4.0 0.00 0.00 0.00 51 1017.7
20260505074606 39 352 1.0 3.0 0.00 0.00 0.00 51 1017.9
20260505073051 39 352 1.0 2.0 0.00 0.00 0.00 51 1018.2
20260505071551 40 352 1.0 3.0 0.00 0.00 0.00 49 1018.0
20260505070046 40 352 2.0 5.0 0.00 0.00 0.00 50 1018.1
20260505064545 40 73 3.0 4.0 0.00 0.00 0.00 49 1018.1
20260505063056 40 77 1.0 2.0 0.00 0.00 0.00 50 1017.8
20260505061615 40 77 1.0 3.0 0.00 0.00 0.00 47 1017.6
20260505060053 41 77 2.0 5.0 0.00 0.00 0.00 47 1017.3
20260505054602 41 88 3.0 6.0 0.00 0.00 0.00 47 1017.3
20260505053045 41 99 3.0 7.0 0.00 0.00 0.00 47 1017.3
20260505051610 41 139 4.0 5.0 0.00 0.00 0.00 47 1017.1
20260505041551 41 61 5.0 8.0 0.00 0.00 0.00 45 1017.2
20260505040050 41 65 4.0 8.0 0.00 0.00 0.00 42 1017.1
20260505034549 43 30 8.0 12.0 0.00 0.00 0.00 42 1016.9
20260505033053 44 30 10.0 14.0 0.00 0.00 0.00 41 1016.6
20260505031546 45 28 13.0 19.0 0.00 0.00 0.00 39 1016.4
20260505030056 46 21 11.0 18.0 0.00 0.00 0.00 34 1016.1
20260505024606 47 15 11.0 16.0 0.00 0.00 0.00 31 1015.8
20260505023051 49 9 14.0 18.0 0.00 0.00 0.00 28 1015.6
20260505021608 50 5 14.0 19.0 0.00 0.00 0.00 26 1015.5
20260505020051 52 5 15.0 22.0 0.00 0.00 0.00 24 1015.2
20260505014554 53 5 15.0 24.0 0.00 0.00 0.00 22 1015.1
20260505013051 54 348 17.0 24.0 0.00 0.00 0.00 22 1015.0
20260505011556 54 317 14.0 24.0 0.00 0.00 0.00 22 1015.0
20260505010051 55 331 16.0 23.0 0.00 0.00 0.00 22 1015.0
20260505004550 54 334 15.0 24.0 0.00 0.00 0.00 23 1015.2
20260505003047 55 325 18.0 26.0 0.00 0.00 0.00 22 1015.1
20260505001548 56 323 20.0 26.0 0.00 0.00 0.00 23 1015.1
20260505000049 55 331 16.0 28.0 0.00 0.00 0.00 23 1015.1
20260504234550 56 5 18.0 28.0 0.00 0.00 0.00 24 1015.1
20260504233101 55 299 13.0 24.0 0.00 0.00 0.00 26 1015.2
20260504231605 55 330 21.0 28.0 0.00 0.00 0.00 28 1015.2
20260504230058 55 340 21.0 31.0 0.00 0.00 0.00 28 1015.3
20260504224555 55 327 16.0 23.0 0.00 0.00 0.00 30 1015.3
20260504223103 54 344 16.0 22.0 0.00 0.00 0.00 30 1015.2
20260504221606 55 15 13.0 20.0 0.00 0.00 0.00 31 1015.3
20260504220135 55 306 20.0 31.0 0.00 0.00 0.00 31 1015.5
20260504214555 55 331 16.0 33.0 0.00 0.00 0.00 31 1015.4
20260504213123 57 331 17.0 26.0 0.00 0.00 0.00 30 1015.4
20260504211551 56 344 17.0 33.0 0.00 0.00 0.00 30 1015.4
20260504210047 55 323 20.0 34.0 0.00 0.00 0.00 30 1015.3
20260504204559 55 340 17.0 28.0 0.00 0.00 0.00 29 1015.6
20260504203052 55 323 15.0 32.0 0.00 0.00 0.00 30 1015.3
20260504201551 55 320 12.0 30.0 0.00 0.00 0.00 30 1015.4
20260504194552 56 323 18.0 31.0 0.00 0.00 0.00 30 1015.3
20260504193044 56 317 13.0 26.0 0.00 0.00 0.00 31 1015.5
20260504191550 55 298 13.0 26.0 0.00 0.00 0.00 32 1015.4
20260504190048 56 360 15.0 29.0 0.00 0.00 0.00 31 1015.4
20260504184550 56 326 13.0 33.0 0.00 0.00 0.00 33 1015.5
20260504183054 56 326 18.0 31.0 0.00 0.00 0.00 31 1015.6
20260504181553 56 336 12.0 31.0 0.00 0.00 0.00 33 1015.6
20260504180053 55 340 20.0 27.0 0.00 0.00 0.00 35 1015.6
20260504174549 54 303 13.0 22.0 0.00 0.00 0.00 36 1015.6
20260504173046 55 325 12.0 21.0 0.00 0.00 0.00 36 1015.6
20260504171556 55 300 11.0 19.0 0.00 0.00 0.00 40 1015.6